Location: G�migny
(47.9646°N, 1.6950°E)
Time: 06:42:38
(UTC+00:00)

YAOGAN 6 - Pass Details

Date: 26 January 2020
Orbit: 465 x 505 km, 97.0° (Epoch: 27 February)

Event Time Altitude Azimuth Distance (km) Brightness Sun altitude
Rises 06:49:31 0° 12° (NNE) 2,543 6.1 -6.8°
Reaches altitude 10° 06:51:36 10° 12° (NNE) 1,653 5.2 -6.5°
Maximum altitude 06:55:09 89° 86° (E) 478 2.5 -6.0°
Drops below altitude 10° 06:58:38 10° 193° (SSW) 1,622 5.3 -5.4°
Sets 07:00:40 0° 194° (SSW) 2,490 6.3 -5.1°
